Regional Weather Roundup
Issued by NWS State College, PA

Home | Current Version | Previous Version | Graphics & Text | Print | Product List | Glossary On
Versions: 1 2 3 4 5 6 7 8 9 10 11 12 13 14 15 16 17 18 19 20 21 22 23 24 25 26 27 28 29 30 31 32 33 34 35 36 37 38 39 40 41 42 43 44 45 46 47 48 49 50
000
ASUS41 KCTP 282010
RWRCTP

REGIONAL WEATHER ROUNDUP
NATIONAL WEATHER SERVICE STATE COLLEGE PA
400 PM EDT MON JUL 28 2014

Note: "fair" indicates few or no clouds below 12,000 feet with no
significant weather and/or obstructions to visibility.

* = STATION THAT DOES NOT REPORT PRECIPITATION /E.G. RAIN...SNOW...ETC/
    THUNDER OR FOG.

PAZ002>004-007>009-013>016-020>023-029>032-282100-
WESTERN PENNSYLVANIA

CITY           SKY/WX    TMP DP  RH WIND       PRES   REMARKS
ERIE           CLOUDY    68  54  60 NW13G18   29.81S
MEADVILLE      CLOUDY    61  58  90 NW6       29.84R
FRANKLIN*      CLOUDY    59  55  88 N6        29.84R
NEW CASTLE       N/A     63  60  90 NW12G17   29.86R
BEAVER COUNTY  CLOUDY    63  59  88 NW12G23   29.84R
BUTLER*        CLOUDY    64  59  82 NW6       29.83R
PITTSBURGH INT DRIZZLE   63  60  90 NW25G32   29.83R
PITTSBURGH     LGT RAIN  63  59  88 NW10G28   29.81R FOG
INDIANA*       CLOUDY    66  63  88 N9G15     29.80R
LATROBE        LGT RAIN  64  64 100 NW12      29.79R
WASHINGTON CO* CLOUDY    66  57  72 NW17G24   29.85R
$$

PAZ004>006-010>012-017>019-024>028-033>037-041-042-045-046-049>053-282100-
CENTRAL PENNSYLVANIA

CITY           SKY/WX    TMP DP  RH WIND       PRES   REMARKS
BRADFORD       LGT RAIN  58  56  93 NW12      29.78R FOG
DUBOIS         PTSUNNY   66  57  72 NW18G25   29.76R
CLEARFIELD     LGT RAIN  65  62  90 NW14G20   29.73R
JOHNSTOWN      LGT RAIN  60  58  92 NW15G24   29.78R
ALTOONA        PTSUNNY   69  60  73 W12       29.74R
STATE COLLEGE  LGT RAIN  63  61  94 NW9       29.70R
WILLIAMSPORT   PTSUNNY   68  61  78 W9        29.62R
SELINSGROVE    PTSUNNY   76  60  57 W8        29.63R
FT INDIANTOWN  MOSUNNY   79  59  51 W13G25    29.62S
CAPITAL CITY   PTSUNNY   78  59  51 W13G22    29.64R
HARRISBURG     PTSUNNY   79  60  52 W12G22    29.63
YORK           CLOUDY    76  60  57 W8G18     29.65S
$$

PAZ038>040-043-044-047-048-054-055-060>062-067>071-282100-
EASTERN PENNSYLVANIA

CITY           SKY/WX    TMP DP  RH WIND       PRES   REMARKS
SCRANTON       LGT RAIN  63  59  87 S5        29.62R FOG
MOUNT POCONO   PTSUNNY   72  57  59 W16       29.62R
ALLENTOWN      MOSUNNY   81  58  45 W13G22    29.58R
QUAKERTOWN*    PTCLDY    79  59  50 W10G20    29.60S
READING        SUNNY     81  59  47 W16G26    29.59S
LANCASTER      MOSUNNY   79  59  50 W15G29    29.63R
COATESVILLE    MOCLDY    77  61  57 W12G18    29.64R
POTTSTOWN      PTSUNNY   80  59  48 W9G20     29.61S
BLUE BELL      SUNNY     81  59  47 W12G23    29.59S
DOYLESTOWN     MOSUNNY   79  58  48 W9G18     29.59S
WILLOW GROVE   NOT AVBL
NORTH PHILA    CLOUDY    84  58  40 W18       29.60R
PHILADELPHIA   PTSUNNY   83  59  44 W22G30    29.60S
$$



USA.gov is the U.S. government's official web portal to all federal, state and local government web resources and services.